Regional Weather Roundup
Issued by NWS

Home | Current Version | Previous Version | Graphics & Text | Print | Product List | Glossary On
Versions: 1 2 3 4 5 6 7 8 9 10 11 12 13 14 15 16 17 18 19 20 21 22 23 24 25 26 27 28 29 30 31 32 33 34 35 36 37 38 39 40 41 42 43 44 45 46 47 48 49 50
000
ASUS45 KSLC 231610
RWRUT

UTAH REGIONAL WEATHER ROUNDUP
NATIONAL WEATHER SERVICE SALT LAKE CITY UT
900 AM MST SUN NOV 23 2014

UTZ001>011-023>025-231700-

NORTHERN UTAH

CITY           SKY/WX    TMP DP  RH WIND       PRES   REMARKS
BRIGHAM CITY   CLOUDY    34  24  67 NW7       30.19R WCI  28
HILL AFB       CLOUDY    30  29  96 SE3       30.18R
LOGAN          CLOUDY    32  28  85 CALM      30.17R
OGDEN          CLOUDY    33  26  75 CALM      30.18R
PROVO AIRPORT  MOSUNNY   30  27  86 NW8       30.17R WCI  23
SALT LAKE CITY PTSUNNY   34  28  79 N5        30.19R WCI  30
VERNAL         PTSUNNY   34  23  64 VRB5      29.97R WCI  30
WENDOVER       SUNNY     36  18  48 NW25G33   30.24R WCI  23
HEBER CITY     CLOUDY    28  25  86 N6        30.10R WCI  22
WEST JORDAN    CLOUDY    30  30 100 N3        30.19R

$$

UTZ012>022-026-027-231700-

SOUTHERN/CENTRAL UTAH

CITY           SKY/WX    TMP DP  RH WIND       PRES   REMARKS
BLANDING       MOSUNNY   34  17  49 NW38G47   29.98R WCI  19
BRYCE CANYON   SUNNY     24  10  55 NW20G26   30.11R WCI  10
CEDAR CITY     SUNNY     33  21  61 N12       30.19R WCI  24
DELTA          SUNNY     31  23  71 NW12      30.23R WCI  22
MILFORD        SUNNY     33  24  69 N7        30.22R WCI  27
MOAB/CYNLANDS  MOSUNNY   38  16  40 W17       30.02R WCI  28
PRICE          SUNNY     32  16  51 NW17G26   30.03R WCI  21
ST GEORGE      MOSUNNY   45  18  33 S5        30.25R
KANAB          SUNNY     39  12  33 NE5       30.22R

$$

REGIONAL REPORTS     COLORADO/ARIZONA

CITY           SKY/WX    TMP DP  RH WIND       PRES   REMARKS
CRAIG, CO      LGT SNOW  27  24  89 SW10      29.94R VSB 3/4 WCI  17
GRAND JUNCTION CLOUDY    31  31 100 NW9       29.97R WCI  23
RIFLE          CLOUDY    28  26  92 W3        29.93R
MONTROSE       CLOUDY    34  27  75 NW13      29.94R WCI  25
CORTEZ         CLOUDY    34  22  61 NW16G30   29.95R WCI  24
PAGE, AZ       NOT AVBL
GRAND CANYON   SUNNY     38   7  27 N8G18     30.14R WCI  32
KINGMAN        SUNNY     49  19  30 N18G24    30.19R
FLAGSTAFF      SUNNY     37  15  40 E3        30.10R

$$

REGIONAL REPORTS    NEVADA/IDAHO/WYOMING

CITY           SKY/WX    TMP DP  RH WIND       PRES   REMARKS
LAS VEGAS, NV  MOSUNNY   56  17  21 NW14G22   30.22R
ELY            SUNNY     29  28  96 NW10      30.28R WCI  20
ELKO           CLOUDY    31  23  72 W6        30.33R WCI  25
POCATELLO, ID  MOSUNNY   30  27  88 SW16      30.18R WCI  19
BURLEY         MIX PCPN  32  24  72 W21G31    30.19R WCI  20
EVANSTON, WY   PTSUNNY   22  17  81 W12       30.05R WCI  10
ROCK SPRINGS   PTSUNNY   23  19  85 SW10      29.95R WCI  12
KEMMERER       MOSUNNY   25  19  80 W15G24    30.01R WCI  12

$$


USA.gov is the U.S. government's official web portal to all federal, state and local government web resources and services.